Zurück zum Katalog

ASAP-S

AktivWissenschaftPO
NORAD 38013·PAYLOAD·🇫🇷 France

Gestartet Dec 17, 2011 von Guiana Space Centre

Loading…

Nächste Überflüge (nächste 24 Stunden)

TLE

AktuellSource: Space-Track

Epoche: Sep 14, 2026, 05:45 UTC

1 38013U 11076G   26257.23973182  .00008712  00000-0  33520-3 0  9991
2 38013  98.0203 193.8758 0005735 189.0627 171.0508 15.26646825806419

Verfolge ASAP-S in Echtzeit mit AllMySat

Download on the App Store